Content
SEND FEEDBACK

Daily
Averages
Monthly
Summary
United States of America

ISHPEMING, MICHIGAN


Home > North America > United States > Michigan
Elevation: 1565 feet     Latitude: 46 31N     Longitude: 087 58W

WEATHER
 
SELECT A DAY
Number of Records: 288,423;   Date Range: 1/1/95 - 8/12/14
 
SHARE

PRINT THIS DATA

[ ← Previous Day ]
WEATHER ALMANAC - FEBRUARY 13, 2013
[ Next Day → ]
[ °C ]   °F
Weather ElementAverageHighLow
Temperature22.4 °F35.6 °F (2:50 pm)14 °F (7:55 am)
Dewpoint18.9 °F24.8 °F (12:50 pm)12.2 °F (7:55 am)
Humidity87.3 %95 % (10:37 pm)65 % (2:50 pm)
Barometer29.62 in29.69 in (12:37 am)29.57 in (2:50 pm)
Wind Speed5.6 mph9.2 mph (1:17 am)
Weather ElementAverage
Visibility9.7 mi
Wind DirectionSSE (144.6 °)

Weather ElementTotal
Precipitation---
Heating Degree Days40.2 (Base 65)
Averaged from 35 records on February 13, 2013
WEATHER CONDITIONS BREAKOUT
WIND DIRECTION BREAKOUT
WEATHER BY HOUR - FEBRUARY 13, 2013
[ °C ]   °F
Local TimeTemperatureDewpointHumidityBarometerVisibilityWind DirectionWind SpeedGust SpeedPrecipitationEventsConditions
12:37 AM19.8 °F16.9 °F89 %29.69 in10.0 miSouth (180°)6.9 mphClear
12:56 AM19.4 °F16.5 °F89 %29.69 in10.0 miSouth (180°)6.9 mphClear
1:17 AM17.6 °F15.4 °F91 %29.68 in10.0 miSouth (180°)9.2 mphClear
1:36 AM17.6 °F15.4 °F91 %29.68 in10.0 miSouth (180°)9.2 mphClear
1:57 AM17.2 °F14.7 °F90 %29.67 in10.0 miSouth (180°)8.1 mphClear
2:17 AM16.7 °F14.2 °F90 %29.67 in10.0 miSouth (190°)9.2 mphClear
2:36 AM16.7 °F14.4 °F91 %29.66 in10.0 miSouth (190°)9.2 mphMostly Cloudy
2:57 AM17.1 °F14.7 °F91 %29.65 in10.0 miSouth (190°)9.2 mphMostly Cloudy
3:17 AM15.8 °F13.8 °F92 %29.65 in10.0 miSouth (190°)9.2 mphMostly Cloudy
3:36 AM15.4 °F13.3 °F91 %29.64 in10.0 miSSW (210°)6.9 mphScattered Clouds
3:57 AM14.9 °F12.9 °F92 %29.64 in10.0 miSSW (200°)5.8 mphMostly Cloudy
4:17 AM14.9 °F13.1 °F93 %29.64 in10.0 miSouth (190°)5.8 mphOvercast
4:36 AM15.4 °F13.5 °F92 %29.63 in10.0 miSouth (190°)5.8 mphOvercast
4:57 AM15.1 °F13.1 °F92 %29.63 in10.0 miSouth (190°)5.8 mphOvercast
5:16 AM15.3 °F13.1 °F91 %29.63 in10.0 miSouth (180°)5.8 mphOvercast
5:37 AM15.3 °F13.5 °F93 %29.63 in10.0 miSouth (180°)5.8 mphOvercast
5:57 AM14.9 °F13.1 °F93 %29.62 in10.0 miSouth (170°)6.9 mphOvercast
7:55 AM14.0 °F12.2 °F93 %29.61 in10.0 miSSW (200°)6.9 mphMostly Cloudy
10:50 AM21.2 °F17.6 °F86 %29.60 in10.0 miCalmMostly Cloudy
11:50 AM26.6 °F21.2 °F80 %29.60 in10.0 miSouth (170°)5.8 mphOvercast
12:50 PM32.0 °F24.8 °F75 %29.58 in10.0 miSouth (180°)4.6 mphScattered Clouds
1:50 PM33.8 °F24.8 °F70 %29.58 in10.0 miSSW (210°)4.6 mphOvercast
2:50 PM35.6 °F24.8 °F65 %29.57 in10.0 miSW (230°)6.9 mphOvercast
4:50 PM35.6 °F24.8 °F65 %29.57 in10.0 miSSW (200°)8.1 mphScattered Clouds
5:50 PM35.6 °F24.8 °F65 %29.57 in10.0 miSSW (200°)4.6 mphScattered Clouds
6:50 PM32.0 °F24.8 °F75 %29.58 in10.0 miCalmScattered Clouds
7:50 PM26.6 °F23.0 °F86 %29.59 in10.0 miNE (50°)3.5 mphScattered Clouds
8:50 PM28.4 °F24.8 °F86 %29.59 in10.0 miCalmClear
9:48 PM26.6 °F24.8 °F93 %29.60 in10.0 miNorth (10°)3.5 mphClear
10:17 PM26.2 °F24.6 °F94 %29.59 in10.0 miNNE (20°)3.5 mphScattered Clouds
10:37 PM26.1 °F24.8 °F95 %29.59 in7.0 miNNE (20°)4.6 mphOvercast
10:57 PM25.7 °F24.4 °F95 %29.59 in7.0 miNorth (360°)4.6 mphOvercast
11:16 PM26.1 °F24.8 °F95 %29.58 in7.0 miNNE (30°)3.5 mphOvercast
11:37 PM25.5 °F24.3 °F95 %29.59 in7.0 miNorth (10°)4.6 mphOvercast
11:57 PM25.7 °F23.9 °F93 %29.59 in10.0 miCalmOvercast
Hourly data recorded from KSAW, located miles away from Ishpeming, Michigan







STORIES FROM OUR PARTNERS